Year,Month,Day,Hour,Minute,Value (Times are PST for temperature in C)
2017,09,28,00,00,12.10
2017,09,28,00,01,12.10
2017,09,28,00,02,12.10
2017,09,28,00,03,12.10
2017,09,28,00,04,12.10
2017,09,28,00,05,12.10
2017,09,28,00,06,12.10
2017,09,28,00,07,12.10
2017,09,28,00,08,12.10
2017,09,28,00,09,12.10
2017,09,28,00,10,12.10
2017,09,28,00,11,12.10
2017,09,28,00,12,12.00
2017,09,28,00,13,12.00
2017,09,28,00,14,12.00
2017,09,28,00,15,12.00
2017,09,28,00,16,12.00
2017,09,28,00,17,12.00
2017,09,28,00,18,12.00
2017,09,28,00,19,12.00
2017,09,28,00,20,11.90
2017,09,28,00,21,11.90
2017,09,28,00,22,11.90
2017,09,28,00,23,11.80
2017,09,28,00,24,11.80
2017,09,28,00,25,11.80
2017,09,28,00,26,11.80
2017,09,28,00,27,11.80
2017,09,28,00,28,11.80
2017,09,28,00,29,11.80
2017,09,28,00,30,11.80
2017,09,28,00,31,11.80
2017,09,28,00,32,11.90
2017,09,28,00,33,11.80
2017,09,28,00,34,11.80
2017,09,28,00,35,11.80
2017,09,28,00,36,11.80
2017,09,28,00,37,11.80
2017,09,28,00,38,11.80
2017,09,28,00,39,11.80
2017,09,28,00,40,11.80
2017,09,28,00,41,11.80
2017,09,28,00,42,11.80
2017,09,28,00,43,11.80
2017,09,28,00,44,11.80
2017,09,28,00,45,11.80
2017,09,28,00,46,11.80
2017,09,28,00,47,11.70
2017,09,28,00,48,11.70
2017,09,28,00,49,11.70
2017,09,28,00,50,11.70
2017,09,28,00,51,11.60
2017,09,28,00,52,11.60
2017,09,28,00,53,11.60
2017,09,28,00,54,11.60
2017,09,28,00,55,11.60
2017,09,28,00,56,11.50
2017,09,28,00,57,11.60
2017,09,28,00,58,11.60
2017,09,28,00,59,11.50
2017,09,28,01,00,11.50
2017,09,28,01,01,11.50
2017,09,28,01,02,11.40
2017,09,28,01,03,11.40
2017,09,28,01,04,11.40
2017,09,28,01,05,11.40
2017,09,28,01,06,11.40
2017,09,28,01,07,11.40
2017,09,28,01,08,11.40
2017,09,28,01,09,11.40
2017,09,28,01,10,11.30
2017,09,28,01,11,11.30
2017,09,28,01,12,11.30
2017,09,28,01,13,11.30
2017,09,28,01,14,11.30
2017,09,28,01,15,11.30
2017,09,28,01,16,11.30
2017,09,28,01,17,11.30
2017,09,28,01,18,11.30
2017,09,28,01,19,11.30
2017,09,28,01,20,11.20
2017,09,28,01,21,11.20
2017,09,28,01,22,11.20
2017,09,28,01,23,11.20
2017,09,28,01,24,11.20
2017,09,28,01,25,11.20
2017,09,28,01,26,11.30
2017,09,28,01,27,11.30
2017,09,28,01,28,11.30
2017,09,28,01,29,11.30
2017,09,28,01,30,11.30
2017,09,28,01,31,11.30
2017,09,28,01,32,11.30
2017,09,28,01,33,11.20
2017,09,28,01,34,11.30
2017,09,28,01,35,11.20
2017,09,28,01,36,11.20
2017,09,28,01,37,11.20
2017,09,28,01,38,11.20
2017,09,28,01,39,11.20
2017,09,28,01,40,11.20
2017,09,28,01,41,11.20
2017,09,28,01,42,11.20
2017,09,28,01,43,11.30
2017,09,28,01,44,11.30
2017,09,28,01,45,11.30
2017,09,28,01,46,11.30
2017,09,28,01,47,11.30
2017,09,28,01,48,11.30
2017,09,28,01,49,11.20
2017,09,28,01,50,11.20
2017,09,28,01,51,11.20
2017,09,28,01,52,11.20
2017,09,28,01,53,11.20
2017,09,28,01,54,11.10
2017,09,28,01,55,11.10
2017,09,28,01,56,11.10
2017,09,28,01,57,11.10
2017,09,28,01,58,11.00
2017,09,28,01,59,11.00
2017,09,28,02,00,11.00
2017,09,28,02,01,11.00
2017,09,28,02,02,11.00
2017,09,28,02,03,11.00
2017,09,28,02,04,11.00
2017,09,28,02,05,11.10
2017,09,28,02,06,11.10
2017,09,28,02,07,11.10
2017,09,28,02,08,11.10
2017,09,28,02,09,11.10
2017,09,28,02,10,11.10
2017,09,28,02,11,11.10
2017,09,28,02,12,11.10
2017,09,28,02,13,11.10
2017,09,28,02,14,11.10
2017,09,28,02,15,11.00
2017,09,28,02,16,11.00
2017,09,28,02,17,11.00
2017,09,28,02,18,11.00
2017,09,28,02,19,11.00
2017,09,28,02,20,11.10
2017,09,28,02,21,11.10
2017,09,28,02,22,11.10
2017,09,28,02,23,11.10
2017,09,28,02,24,11.10
2017,09,28,02,25,11.10
2017,09,28,02,26,11.10
2017,09,28,02,27,11.10
2017,09,28,02,28,11.10
2017,09,28,02,29,11.10
2017,09,28,02,30,11.10
2017,09,28,02,31,11.10
2017,09,28,02,32,11.10
2017,09,28,02,33,11.00
2017,09,28,02,34,11.00
2017,09,28,02,35,11.00
2017,09,28,02,36,11.00
2017,09,28,02,37,10.90
2017,09,28,02,38,10.90
2017,09,28,02,39,10.90
2017,09,28,02,40,10.90
2017,09,28,02,41,10.90
2017,09,28,02,42,10.80
2017,09,28,02,43,10.80
2017,09,28,02,44,10.90
2017,09,28,02,45,10.90
2017,09,28,02,46,10.90
2017,09,28,02,47,10.90
2017,09,28,02,48,10.90
2017,09,28,02,49,11.00
2017,09,28,02,50,11.00
2017,09,28,02,51,11.00
2017,09,28,02,52,11.00
2017,09,28,02,53,11.00
2017,09,28,02,54,11.00
2017,09,28,02,55,11.00
2017,09,28,02,56,11.10
2017,09,28,02,57,11.10
2017,09,28,02,58,11.10
2017,09,28,02,59,11.10
2017,09,28,03,00,11.10
2017,09,28,03,01,11.10
2017,09,28,03,02,11.10
2017,09,28,03,03,11.10
2017,09,28,03,04,11.10
2017,09,28,03,05,11.10
2017,09,28,03,06,11.10
2017,09,28,03,07,11.10
2017,09,28,03,08,11.10
2017,09,28,03,09,11.10
2017,09,28,03,10,11.10
2017,09,28,03,11,11.10
2017,09,28,03,12,11.10
2017,09,28,03,13,11.10
2017,09,28,03,14,11.10
2017,09,28,03,15,11.10
2017,09,28,03,16,11.10
2017,09,28,03,17,11.00
2017,09,28,03,18,11.00
2017,09,28,03,19,10.90
2017,09,28,03,20,10.90
2017,09,28,03,21,10.90
2017,09,28,03,22,10.90
2017,09,28,03,23,10.90
2017,09,28,03,24,10.90
2017,09,28,03,25,10.80
2017,09,28,03,26,10.80
2017,09,28,03,27,10.80
2017,09,28,03,28,10.80
2017,09,28,03,29,10.70
2017,09,28,03,30,10.70
2017,09,28,03,31,10.70
2017,09,28,03,32,10.60
2017,09,28,03,33,10.60
2017,09,28,03,34,10.60
2017,09,28,03,35,10.60
2017,09,28,03,36,10.60
2017,09,28,03,37,10.60
2017,09,28,03,38,10.50
2017,09,28,03,39,10.50
2017,09,28,03,40,10.50
2017,09,28,03,41,10.50
2017,09,28,03,42,10.50
2017,09,28,03,43,10.40
2017,09,28,03,44,10.40
2017,09,28,03,45,10.40
2017,09,28,03,46,10.40
2017,09,28,03,47,10.40
2017,09,28,03,48,10.40
2017,09,28,03,49,10.40
2017,09,28,03,50,10.40
2017,09,28,03,51,10.40
2017,09,28,03,52,10.40
2017,09,28,03,53,10.30
2017,09,28,03,54,10.30
2017,09,28,03,55,10.30
2017,09,28,03,56,10.30
2017,09,28,03,57,10.30
2017,09,28,03,58,10.30
2017,09,28,03,59,10.30
2017,09,28,04,00,10.30
2017,09,28,04,01,10.20
2017,09,28,04,02,10.20
2017,09,28,04,03,10.20
2017,09,28,04,04,10.20
2017,09,28,04,05,10.20
2017,09,28,04,06,10.20
2017,09,28,04,07,10.20
2017,09,28,04,08,10.10
2017,09,28,04,09,10.10
2017,09,28,04,10,10.10
2017,09,28,04,11,10.10
2017,09,28,04,12,10.00
2017,09,28,04,13,10.00
2017,09,28,04,14,10.00
2017,09,28,04,15,9.90
2017,09,28,04,16,9.90
2017,09,28,04,17,10.00
2017,09,28,04,18,10.00
2017,09,28,04,19,10.00
2017,09,28,04,20,10.00
2017,09,28,04,21,10.00
2017,09,28,04,22,10.00
2017,09,28,04,23,10.00
2017,09,28,04,24,10.00
2017,09,28,04,25,10.00
2017,09,28,04,26,10.00
2017,09,28,04,27,10.00
2017,09,28,04,28,10.00
2017,09,28,04,29,10.00
2017,09,28,04,30,10.00
2017,09,28,04,31,10.00
2017,09,28,04,32,10.00
2017,09,28,04,33,10.00
2017,09,28,04,34,10.10
2017,09,28,04,35,10.10
2017,09,28,04,36,10.10
2017,09,28,04,37,10.20
2017,09,28,04,38,10.20
2017,09,28,04,39,10.20
2017,09,28,04,40,10.20
2017,09,28,04,41,10.20
2017,09,28,04,42,10.20
2017,09,28,04,43,10.20
2017,09,28,04,44,10.20
2017,09,28,04,45,10.20
2017,09,28,04,46,10.20
2017,09,28,04,47,10.20
2017,09,28,04,48,10.20
2017,09,28,04,49,10.30
2017,09,28,04,50,10.30
2017,09,28,04,51,10.30
2017,09,28,04,52,10.20
2017,09,28,04,53,10.20
2017,09,28,04,54,10.30
2017,09,28,04,55,10.30
2017,09,28,04,56,10.30
2017,09,28,04,57,10.40
2017,09,28,04,58,10.40
2017,09,28,04,59,10.40
2017,09,28,05,00,10.40
2017,09,28,05,01,10.50
2017,09,28,05,02,10.50
2017,09,28,05,03,10.50
2017,09,28,05,04,10.40
2017,09,28,05,05,10.50
2017,09,28,05,06,10.50
2017,09,28,05,07,10.50
2017,09,28,05,08,10.50
2017,09,28,05,09,10.40
2017,09,28,05,10,10.40
2017,09,28,05,11,10.40
2017,09,28,05,12,10.40
2017,09,28,05,13,10.40
2017,09,28,05,14,10.40
2017,09,28,05,15,10.30
2017,09,28,05,16,10.30
2017,09,28,05,17,10.30
2017,09,28,05,18,10.30
2017,09,28,05,19,10.30
2017,09,28,05,20,10.30
2017,09,28,05,21,10.30
2017,09,28,05,22,10.30
2017,09,28,05,23,10.30
2017,09,28,05,24,10.30
2017,09,28,05,25,10.30
2017,09,28,05,26,10.30
2017,09,28,05,27,10.30
2017,09,28,05,28,10.30
2017,09,28,05,29,10.30
2017,09,28,05,30,10.30
2017,09,28,05,31,10.30
2017,09,28,05,32,10.30
2017,09,28,05,33,10.30
2017,09,28,05,34,10.30
2017,09,28,05,35,10.30
2017,09,28,05,36,10.30
2017,09,28,05,37,10.30
2017,09,28,05,38,10.30
2017,09,28,05,39,10.20
2017,09,28,05,40,10.20
2017,09,28,05,41,10.30
2017,09,28,05,42,10.30
2017,09,28,05,43,10.30
2017,09,28,05,44,10.30
2017,09,28,05,45,10.30
2017,09,28,05,46,10.30
2017,09,28,05,47,10.20
2017,09,28,05,48,10.20
2017,09,28,05,49,10.20
2017,09,28,05,50,10.10
2017,09,28,05,51,10.10
2017,09,28,05,52,10.10
2017,09,28,05,53,10.10
2017,09,28,05,54,10.00
2017,09,28,05,55,10.00
2017,09,28,05,56,10.00
2017,09,28,05,57,9.90
2017,09,28,05,58,9.90
2017,09,28,05,59,10.00
2017,09,28,06,00,10.00
2017,09,28,06,01,10.00
2017,09,28,06,02,10.00
2017,09,28,06,03,10.10
2017,09,28,06,04,10.10
2017,09,28,06,05,10.00
2017,09,28,06,06,10.00
2017,09,28,06,07,10.00
2017,09,28,06,08,9.90
2017,09,28,06,09,9.90
2017,09,28,06,10,9.90
2017,09,28,06,11,9.90
2017,09,28,06,12,9.90
2017,09,28,06,13,9.90
2017,09,28,06,14,9.80
2017,09,28,06,15,9.80
2017,09,28,06,16,9.80
2017,09,28,06,17,9.80
2017,09,28,06,18,9.70
2017,09,28,06,19,9.70
2017,09,28,06,20,9.70
2017,09,28,06,21,9.70
2017,09,28,06,22,9.70
2017,09,28,06,23,9.70
2017,09,28,06,24,9.60
2017,09,28,06,25,9.60
2017,09,28,06,26,9.60
2017,09,28,06,27,9.60
2017,09,28,06,28,9.60
2017,09,28,06,29,9.60
2017,09,28,06,30,9.60
2017,09,28,06,31,9.60
2017,09,28,06,32,9.60
2017,09,28,06,33,9.60
2017,09,28,06,34,9.60
2017,09,28,06,35,9.60
2017,09,28,06,36,9.60
2017,09,28,06,37,9.60
2017,09,28,06,38,9.60
2017,09,28,06,39,9.60
2017,09,28,06,40,9.70
2017,09,28,06,41,9.70
2017,09,28,06,42,9.70
2017,09,28,06,43,9.70
2017,09,28,06,44,9.70
2017,09,28,06,45,9.60
2017,09,28,06,46,9.60
2017,09,28,06,47,9.60
2017,09,28,06,48,9.60
2017,09,28,06,49,9.60
2017,09,28,06,50,9.60
2017,09,28,06,51,9.60
2017,09,28,06,52,9.70
2017,09,28,06,53,9.70
2017,09,28,06,54,9.70
2017,09,28,06,55,9.70
2017,09,28,06,56,9.70
2017,09,28,06,57,9.70
2017,09,28,06,58,9.70
2017,09,28,06,59,9.70
2017,09,28,07,00,9.70
2017,09,28,07,01,9.70
2017,09,28,07,02,9.70
2017,09,28,07,03,9.60
2017,09,28,07,04,9.60
2017,09,28,07,05,9.60
2017,09,28,07,06,9.50
2017,09,28,07,07,9.50
2017,09,28,07,08,9.40
2017,09,28,07,09,9.40
2017,09,28,07,10,9.40
2017,09,28,07,11,9.30
2017,09,28,07,12,9.30
2017,09,28,07,13,9.20
2017,09,28,07,14,9.20
2017,09,28,07,15,9.20
2017,09,28,07,16,9.20
2017,09,28,07,17,9.30
2017,09,28,07,18,9.30
2017,09,28,07,19,9.30
2017,09,28,07,20,9.30
2017,09,28,07,21,9.30
2017,09,28,07,22,9.30
2017,09,28,07,23,9.30
2017,09,28,07,24,9.30
2017,09,28,07,25,9.30
2017,09,28,07,26,9.30
2017,09,28,07,27,9.30
2017,09,28,07,28,9.30
2017,09,28,07,29,9.30
2017,09,28,07,30,9.30
2017,09,28,07,31,9.30
2017,09,28,07,32,9.30
2017,09,28,07,33,9.30
2017,09,28,07,34,9.30
2017,09,28,07,35,9.30
2017,09,28,07,36,9.20
2017,09,28,07,37,9.20
2017,09,28,07,38,9.20
2017,09,28,07,39,9.20
2017,09,28,07,40,9.20
2017,09,28,07,41,9.20
2017,09,28,07,42,9.30
2017,09,28,07,43,9.40
2017,09,28,07,44,9.50
2017,09,28,07,45,9.60
2017,09,28,07,46,9.70
2017,09,28,07,47,9.70
2017,09,28,07,48,9.70
2017,09,28,07,49,9.80
2017,09,28,07,50,9.90
2017,09,28,07,51,9.90
2017,09,28,07,52,9.90
2017,09,28,07,53,9.90
2017,09,28,07,54,10.00
2017,09,28,07,55,10.00
2017,09,28,07,56,10.00
2017,09,28,07,57,10.10
2017,09,28,07,58,10.10
2017,09,28,07,59,10.20
2017,09,28,08,00,10.20
2017,09,28,08,01,10.20
2017,09,28,08,02,10.20
2017,09,28,08,03,10.20
2017,09,28,08,04,10.10
2017,09,28,08,05,10.10
2017,09,28,08,06,10.10
2017,09,28,08,07,10.10
2017,09,28,08,08,10.00
2017,09,28,08,09,10.00
2017,09,28,08,10,10.00
2017,09,28,08,11,10.00
2017,09,28,08,12,10.00
2017,09,28,08,13,10.00
2017,09,28,08,14,10.00
2017,09,28,08,15,10.00
2017,09,28,08,16,9.90
2017,09,28,08,17,9.90
2017,09,28,08,18,9.90
2017,09,28,08,19,9.80
2017,09,28,08,20,9.80
2017,09,28,08,21,9.80
2017,09,28,08,22,9.80
2017,09,28,08,23,9.90
2017,09,28,08,24,9.90
2017,09,28,08,25,9.90
2017,09,28,08,26,9.90
2017,09,28,08,27,10.00
2017,09,28,08,28,10.10
2017,09,28,08,29,10.20
2017,09,28,08,30,10.30
2017,09,28,08,31,10.30
2017,09,28,08,32,10.30
2017,09,28,08,33,10.20
2017,09,28,08,34,10.30
2017,09,28,08,35,10.40
2017,09,28,08,36,10.50
2017,09,28,08,37,10.60
2017,09,28,08,38,10.70
2017,09,28,08,39,10.60
2017,09,28,08,40,10.60
2017,09,28,08,41,10.60
2017,09,28,08,42,10.60
2017,09,28,08,43,10.60
2017,09,28,08,44,10.50
2017,09,28,08,45,10.50
2017,09,28,08,46,10.50
2017,09,28,08,47,10.50
2017,09,28,08,48,10.60
2017,09,28,08,49,10.60
2017,09,28,08,50,10.70
2017,09,28,08,51,10.70
2017,09,28,08,52,10.80
2017,09,28,08,53,10.90
2017,09,28,08,54,10.90
2017,09,28,08,55,11.00
2017,09,28,08,56,11.10
2017,09,28,08,57,11.20
2017,09,28,08,58,11.30
2017,09,28,08,59,11.30
2017,09,28,09,00,11.40
2017,09,28,09,01,11.50
2017,09,28,09,02,11.60
2017,09,28,09,03,11.70
2017,09,28,09,04,11.90
2017,09,28,09,05,12.00
2017,09,28,09,06,12.10
2017,09,28,09,07,12.20
2017,09,28,09,08,12.20
2017,09,28,09,09,12.30
2017,09,28,09,10,12.30
2017,09,28,09,11,12.40
2017,09,28,09,12,12.40
2017,09,28,09,13,12.40
2017,09,28,09,14,12.40
2017,09,28,09,15,12.40
2017,09,28,09,16,12.50
2017,09,28,09,17,12.50
2017,09,28,09,18,12.60
2017,09,28,09,19,12.70
2017,09,28,09,20,12.80
2017,09,28,09,21,12.90
2017,09,28,09,22,13.00
2017,09,28,09,23,13.00
2017,09,28,09,24,13.10
2017,09,28,09,25,13.20
2017,09,28,09,26,13.20
2017,09,28,09,27,13.20
2017,09,28,09,28,13.30
2017,09,28,09,29,13.30
2017,09,28,09,30,13.30
2017,09,28,09,31,13.40
2017,09,28,09,32,13.50
2017,09,28,09,33,13.50
2017,09,28,09,34,13.60
2017,09,28,09,35,13.70
2017,09,28,09,36,13.80
2017,09,28,09,37,13.80
2017,09,28,09,38,13.80
2017,09,28,09,39,13.80
2017,09,28,09,40,13.80
2017,09,28,09,41,13.80
2017,09,28,09,42,13.90
2017,09,28,09,43,14.00
2017,09,28,09,44,14.10
2017,09,28,09,45,14.20
2017,09,28,09,46,14.30
2017,09,28,09,47,14.40
2017,09,28,09,48,14.50
2017,09,28,09,49,14.60
2017,09,28,09,50,14.70
2017,09,28,09,51,14.80
2017,09,28,09,52,14.90
2017,09,28,09,53,15.00
2017,09,28,09,54,15.10
2017,09,28,09,55,15.20
2017,09,28,09,56,15.30
2017,09,28,09,57,15.40
2017,09,28,09,58,15.50
2017,09,28,09,59,15.60
2017,09,28,10,00,15.60
2017,09,28,10,01,15.70
2017,09,28,10,02,15.80
2017,09,28,10,03,15.80
2017,09,28,10,04,15.80
2017,09,28,10,05,15.90
2017,09,28,10,06,15.90
2017,09,28,10,07,16.00
2017,09,28,10,08,16.00
2017,09,28,10,09,16.10
2017,09,28,10,10,16.10
2017,09,28,10,11,16.10
2017,09,28,10,12,16.10
2017,09,28,10,13,16.10
2017,09,28,10,14,16.20
2017,09,28,10,15,16.20
2017,09,28,10,16,16.20
2017,09,28,10,17,16.20
2017,09,28,10,18,16.30
2017,09,28,10,19,16.30
2017,09,28,10,20,16.40
2017,09,28,10,21,16.40
2017,09,28,10,22,16.50
2017,09,28,10,23,16.50
2017,09,28,10,24,16.60
2017,09,28,10,25,16.60
2017,09,28,10,26,16.60
2017,09,28,10,27,16.60
2017,09,28,10,28,16.60
2017,09,28,10,29,16.60
2017,09,28,10,30,16.50
2017,09,28,10,31,16.40
2017,09,28,10,32,16.40
2017,09,28,10,33,16.30
2017,09,28,10,34,16.20
2017,09,28,10,35,16.20
2017,09,28,10,36,16.20
2017,09,28,10,37,16.10
2017,09,28,10,38,16.10
2017,09,28,10,39,16.20
2017,09,28,10,40,16.20
2017,09,28,10,41,16.20
2017,09,28,10,42,16.20
2017,09,28,10,43,16.30
2017,09,28,10,44,16.40
2017,09,28,10,45,16.50
2017,09,28,10,46,16.60
2017,09,28,10,47,16.70
2017,09,28,10,48,16.80
2017,09,28,10,49,16.90
2017,09,28,10,50,16.90
2017,09,28,10,51,17.00
2017,09,28,10,52,17.00
2017,09,28,10,53,17.10
2017,09,28,10,54,17.20
2017,09,28,10,55,17.30
2017,09,28,10,56,17.30
2017,09,28,10,57,17.30
2017,09,28,10,58,17.40
2017,09,28,10,59,17.40
2017,09,28,11,00,17.50
2017,09,28,11,01,17.60
2017,09,28,11,02,17.70
2017,09,28,11,03,17.70
2017,09,28,11,04,17.70
2017,09,28,11,05,17.80
2017,09,28,11,06,17.80
2017,09,28,11,07,17.80
2017,09,28,11,08,17.80
2017,09,28,11,09,17.80
2017,09,28,11,10,17.70
2017,09,28,11,11,17.70
2017,09,28,11,12,17.70
2017,09,28,11,13,17.70
2017,09,28,11,14,17.70
2017,09,28,11,15,17.70
2017,09,28,11,16,17.70
2017,09,28,11,17,17.80
2017,09,28,11,18,17.80
2017,09,28,11,19,17.90
2017,09,28,11,20,17.90
2017,09,28,11,21,18.00
2017,09,28,11,22,18.00
2017,09,28,11,23,18.10
2017,09,28,11,24,18.10
2017,09,28,11,25,18.20
2017,09,28,11,26,18.20
2017,09,28,11,27,18.30
2017,09,28,11,28,18.30
2017,09,28,11,29,18.30
2017,09,28,11,30,18.40
2017,09,28,11,31,18.40
2017,09,28,11,32,18.50
2017,09,28,11,33,18.50
2017,09,28,11,34,18.60
2017,09,28,11,35,18.60
2017,09,28,11,36,18.70
2017,09,28,11,37,18.70
2017,09,28,11,38,18.70
2017,09,28,11,39,18.70
2017,09,28,11,40,18.70
2017,09,28,11,41,18.80
2017,09,28,11,42,18.80
2017,09,28,11,43,18.90
2017,09,28,11,44,19.00
2017,09,28,11,45,19.10
2017,09,28,11,46,19.10
2017,09,28,11,47,19.20
2017,09,28,11,48,19.20
2017,09,28,11,49,19.30
2017,09,28,11,50,19.30
2017,09,28,11,51,19.30
2017,09,28,11,52,19.40
2017,09,28,11,53,19.50
2017,09,28,11,54,19.50
2017,09,28,11,55,19.60
2017,09,28,11,56,19.60
2017,09,28,11,57,19.60
2017,09,28,11,58,19.70
2017,09,28,11,59,19.70
2017,09,28,12,00,19.70
2017,09,28,12,01,19.70
2017,09,28,12,02,19.70
2017,09,28,12,03,19.70
2017,09,28,12,04,19.70
2017,09,28,12,05,19.80
2017,09,28,12,06,19.80
2017,09,28,12,07,19.90
2017,09,28,12,08,19.90
2017,09,28,12,09,19.90
2017,09,28,12,10,19.90
2017,09,28,12,11,19.80
2017,09,28,12,12,19.80
2017,09,28,12,13,19.70
2017,09,28,12,14,19.70
2017,09,28,12,15,19.60
2017,09,28,12,16,19.60
2017,09,28,12,17,19.60
2017,09,28,12,18,19.50
2017,09,28,12,19,19.50
2017,09,28,12,20,19.40
2017,09,28,12,21,19.30
2017,09,28,12,22,19.30
2017,09,28,12,23,19.20
2017,09,28,12,24,19.20
2017,09,28,12,25,19.20
2017,09,28,12,26,19.20
2017,09,28,12,27,19.20
2017,09,28,12,28,19.20
2017,09,28,12,29,19.20
2017,09,28,12,30,19.20
2017,09,28,12,31,19.30
2017,09,28,12,32,19.30
2017,09,28,12,33,19.40
2017,09,28,12,34,19.40
2017,09,28,12,35,19.50
2017,09,28,12,36,19.60
2017,09,28,12,37,19.50
2017,09,28,12,38,19.50
2017,09,28,12,39,19.50
2017,09,28,12,40,19.50
2017,09,28,12,41,19.50
2017,09,28,12,42,19.50
2017,09,28,12,43,19.50
2017,09,28,12,44,19.60
2017,09,28,12,45,19.50
2017,09,28,12,46,19.50
2017,09,28,12,47,19.50
2017,09,28,12,48,19.40
2017,09,28,12,49,19.40
2017,09,28,12,50,19.50
2017,09,28,12,51,19.50
2017,09,28,12,52,19.60
2017,09,28,12,53,19.60
2017,09,28,12,54,19.70
2017,09,28,12,55,19.70
2017,09,28,12,56,19.80
2017,09,28,12,57,19.80
2017,09,28,12,58,19.80
2017,09,28,12,59,19.80
2017,09,28,13,00,19.90
2017,09,28,13,01,19.90
2017,09,28,13,02,19.90
2017,09,28,13,03,20.00
2017,09,28,13,04,20.10
2017,09,28,13,05,20.10
2017,09,28,13,06,20.20
2017,09,28,13,07,20.20
2017,09,28,13,08,20.20
2017,09,28,13,09,20.30
2017,09,28,13,10,20.40
2017,09,28,13,11,20.40
2017,09,28,13,12,20.50
2017,09,28,13,13,20.60
2017,09,28,13,14,20.60
2017,09,28,13,15,20.60
2017,09,28,13,16,20.60
2017,09,28,13,17,20.60
2017,09,28,13,18,20.60
2017,09,28,13,19,20.60
2017,09,28,13,20,20.60
2017,09,28,13,21,20.60
2017,09,28,13,22,20.60
2017,09,28,13,23,20.70
2017,09,28,13,24,20.70
2017,09,28,13,25,20.70
2017,09,28,13,26,20.70
2017,09,28,13,27,20.70
2017,09,28,13,28,20.60
2017,09,28,13,29,20.60
2017,09,28,13,30,20.60
2017,09,28,13,31,20.50
2017,09,28,13,32,20.50
2017,09,28,13,33,20.40
2017,09,28,13,34,20.40
2017,09,28,13,35,20.30
2017,09,28,13,36,20.30
2017,09,28,13,37,20.20
2017,09,28,13,38,20.20
2017,09,28,13,39,20.20
2017,09,28,13,40,20.20
2017,09,28,13,41,20.20
2017,09,28,13,42,20.20
2017,09,28,13,43,20.20
2017,09,28,13,44,20.20
2017,09,28,13,45,20.30
2017,09,28,13,46,20.30
2017,09,28,13,47,20.30
2017,09,28,13,48,20.40
2017,09,28,13,49,20.50
2017,09,28,13,50,20.50
2017,09,28,13,51,20.60
2017,09,28,13,52,20.70
2017,09,28,13,53,20.80
2017,09,28,13,54,20.90
2017,09,28,13,55,21.00
2017,09,28,13,56,21.10
2017,09,28,13,57,21.20
2017,09,28,13,58,21.30
2017,09,28,13,59,21.40
2017,09,28,14,00,21.50
2017,09,28,14,01,21.50
2017,09,28,14,02,21.60
2017,09,28,14,03,21.70
2017,09,28,14,04,21.70
2017,09,28,14,05,21.80
2017,09,28,14,06,21.90
2017,09,28,14,07,21.90
2017,09,28,14,08,22.00
2017,09,28,14,09,22.10
2017,09,28,14,10,22.20
2017,09,28,14,11,22.30
2017,09,28,14,12,22.30
2017,09,28,14,13,22.40
2017,09,28,14,14,22.40
2017,09,28,14,15,22.50
2017,09,28,14,16,22.60
2017,09,28,14,17,22.70
2017,09,28,14,18,22.70
2017,09,28,14,19,22.80
2017,09,28,14,20,22.80
2017,09,28,14,21,22.80
2017,09,28,14,22,22.90
2017,09,28,14,23,22.90
2017,09,28,14,24,22.90
2017,09,28,14,25,22.90
2017,09,28,14,26,23.00
2017,09,28,14,27,23.00
2017,09,28,14,28,23.00
2017,09,28,14,29,23.00
2017,09,28,14,30,23.00
2017,09,28,14,31,22.90
2017,09,28,14,32,22.80
2017,09,28,14,33,22.70
2017,09,28,14,34,22.60
2017,09,28,14,35,22.50
2017,09,28,14,36,22.50
2017,09,28,14,37,22.50
2017,09,28,14,38,22.50
2017,09,28,14,39,22.50
2017,09,28,14,40,22.50
2017,09,28,14,41,22.50
2017,09,28,14,42,22.60
2017,09,28,14,43,22.60
2017,09,28,14,44,22.60
2017,09,28,14,45,22.70
2017,09,28,14,46,22.70
2017,09,28,14,47,22.70
2017,09,28,14,48,22.80
2017,09,28,14,49,22.80
2017,09,28,14,50,22.80
2017,09,28,14,51,22.80
2017,09,28,14,52,22.80
2017,09,28,14,53,22.80
2017,09,28,14,54,22.80
2017,09,28,14,55,22.90
2017,09,28,14,56,22.90
2017,09,28,14,57,22.90
2017,09,28,14,58,22.90
2017,09,28,14,59,22.90
2017,09,28,15,00,22.90
2017,09,28,15,01,22.90
2017,09,28,15,02,22.90
2017,09,28,15,03,22.90
2017,09,28,15,04,22.90
2017,09,28,15,05,22.80
2017,09,28,15,06,22.80
2017,09,28,15,07,22.80
2017,09,28,15,08,22.80
2017,09,28,15,09,22.90
2017,09,28,15,10,22.90
2017,09,28,15,11,23.00
2017,09,28,15,12,23.00
2017,09,28,15,13,23.00
2017,09,28,15,14,22.90
2017,09,28,15,15,22.90
2017,09,28,15,16,22.90
2017,09,28,15,17,22.80
2017,09,28,15,18,22.80
2017,09,28,15,19,22.80
2017,09,28,15,20,22.80
2017,09,28,15,21,22.80
2017,09,28,15,22,22.80
2017,09,28,15,23,22.80
2017,09,28,15,24,22.70
2017,09,28,15,25,22.70
2017,09,28,15,26,22.60
2017,09,28,15,27,22.50
2017,09,28,15,28,22.50
2017,09,28,15,29,22.40
2017,09,28,15,30,22.30
2017,09,28,15,31,22.30
2017,09,28,15,32,22.30
2017,09,28,15,33,22.30
2017,09,28,15,34,22.20
2017,09,28,15,35,22.20
2017,09,28,15,36,22.20
2017,09,28,15,37,22.10
2017,09,28,15,38,22.00
2017,09,28,15,39,21.90
2017,09,28,15,40,21.80
2017,09,28,15,41,21.80
2017,09,28,15,42,21.70
2017,09,28,15,43,21.70
2017,09,28,15,44,21.70
2017,09,28,15,45,21.70
2017,09,28,15,46,21.70
2017,09,28,15,47,21.70
2017,09,28,15,48,21.70
2017,09,28,15,49,21.70
2017,09,28,15,50,21.70
2017,09,28,15,51,21.70
2017,09,28,15,52,21.70
2017,09,28,15,53,21.70
2017,09,28,15,54,21.70
2017,09,28,15,55,21.80
2017,09,28,15,56,21.80
2017,09,28,15,57,21.80
2017,09,28,15,58,21.80
2017,09,28,15,59,21.90
2017,09,28,16,00,21.90
2017,09,28,16,01,21.90
2017,09,28,16,02,21.90
2017,09,28,16,03,21.90
2017,09,28,16,04,22.00
2017,09,28,16,05,22.00
2017,09,28,16,06,22.10
2017,09,28,16,07,22.10
2017,09,28,16,08,22.10
2017,09,28,16,09,22.20
2017,09,28,16,10,22.20
2017,09,28,16,11,22.20
2017,09,28,16,12,22.30
2017,09,28,16,13,22.30
2017,09,28,16,14,22.30
2017,09,28,16,15,22.30
2017,09,28,16,16,22.30
2017,09,28,16,17,22.40
2017,09,28,16,18,22.40
2017,09,28,16,19,22.40
2017,09,28,16,20,22.40
2017,09,28,16,21,22.50
2017,09,28,16,22,22.50
2017,09,28,16,23,22.60
2017,09,28,16,24,22.70
2017,09,28,16,25,22.80
2017,09,28,16,26,22.90
2017,09,28,16,27,22.90
2017,09,28,16,28,23.00
2017,09,28,16,29,23.10
2017,09,28,16,30,23.20
2017,09,28,16,31,23.20
2017,09,28,16,32,23.30
2017,09,28,16,33,23.30
2017,09,28,16,34,23.30
2017,09,28,16,35,23.30
2017,09,28,16,36,23.30
2017,09,28,16,37,23.30
2017,09,28,16,38,23.30
2017,09,28,16,39,23.30
2017,09,28,16,40,23.30
2017,09,28,16,41,23.30
2017,09,28,16,42,23.30
2017,09,28,16,43,23.30
2017,09,28,16,44,23.30
2017,09,28,16,45,23.30
2017,09,28,16,46,23.30
2017,09,28,16,47,23.20
2017,09,28,16,48,23.20
2017,09,28,16,49,23.20
2017,09,28,16,50,23.20
2017,09,28,16,51,23.10
2017,09,28,16,52,23.10
2017,09,28,16,53,22.90
2017,09,28,16,54,22.60
2017,09,28,16,55,22.30
2017,09,28,16,56,21.90
2017,09,28,16,57,21.40
2017,09,28,16,58,21.00
2017,09,28,16,59,20.70
2017,09,28,17,00,20.50
2017,09,28,17,01,20.30
2017,09,28,17,02,20.20
2017,09,28,17,03,20.10
2017,09,28,17,04,20.00
2017,09,28,17,05,19.90
2017,09,28,17,06,19.80
2017,09,28,17,07,19.70
2017,09,28,17,08,19.60
2017,09,28,17,09,19.60
2017,09,28,17,10,19.50
2017,09,28,17,11,19.50
2017,09,28,17,12,19.40
2017,09,28,17,13,19.40
2017,09,28,17,14,19.40
2017,09,28,17,15,19.40
2017,09,28,17,16,19.40
2017,09,28,17,17,19.50
2017,09,28,17,18,19.60
2017,09,28,17,19,19.60
2017,09,28,17,20,19.70
2017,09,28,17,21,19.80
2017,09,28,17,22,19.90
2017,09,28,17,23,19.90
2017,09,28,17,24,20.00